TimeCDT,TemperatureF,Dew PointF,Humidity,Sea Level PressureIn,VisibilityMPH,Wind Direction,Wind SpeedMPH,Gust SpeedMPH,PrecipitationIn,Events,Conditions,WindDirDegrees,DateUTC
12:55 AM,62.4,61.0,95,30.18,10.0,SSW,3.5,-,N/A,,Clear,200,2012-10-05 05:55:00
1:55 AM,61.3,61.0,99,30.17,10.0,SSW,3.5,-,N/A,,Clear,210,2012-10-05 06:55:00
2:55 AM,60.8,60.8,100,30.16,10.0,SSW,3.5,-,N/A,,Clear,200,2012-10-05 07:55:00
3:55 AM,60.1,60.1,100,30.15,10.0,SSW,3.5,-,N/A,,Clear,210,2012-10-05 08:55:00
4:55 AM,59.9,59.9,100,30.15,10.0,SSW,3.5,-,N/A,,Clear,200,2012-10-05 09:55:00
5:55 AM,59.7,59.7,100,30.16,10.0,South,3.5,-,N/A,,Clear,190,2012-10-05 10:55:00
6:55 AM,59.4,59.4,100,30.15,10.0,Calm,Calm,-,N/A,,Clear,0,2012-10-05 11:55:00
7:55 AM,61.0,61.0,100,30.14,10.0,SSW,3.5,-,N/A,,Clear,200,2012-10-05 12:55:00
8:55 AM,66.7,65.5,96,30.14,10.0,SSW,5.8,-,N/A,,Clear,210,2012-10-05 13:55:00
9:55 AM,72.5,63.9,74,30.14,10.0,WSW,6.9,-,N/A,,Clear,250,2012-10-05 14:55:00
10:55 AM,76.1,63.5,65,30.12,10.0,WSW,11.5,-,N/A,,Clear,240,2012-10-05 15:55:00
11:55 AM,77.2,61.5,58,30.10,10.0,SW,12.7,-,N/A,,Scattered Clouds,230,2012-10-05 16:55:00
12:55 PM,78.3,61.2,56,30.07,10.0,SW,12.7,-,N/A,,Clear,230,2012-10-05 17:55:00
1:55 PM,78.8,59.4,51,30.03,10.0,SW,13.8,19.6,N/A,,Clear,220,2012-10-05 18:55:00
2:55 PM,78.1,60.4,54,30.01,10.0,SW,11.5,-,N/A,,Scattered Clouds,220,2012-10-05 19:55:00
3:55 PM,76.8,60.4,57,29.99,10.0,SW,10.4,-,N/A,,Partly Cloudy,220,2012-10-05 20:55:00
4:55 PM,75.0,61.9,64,29.99,10.0,SSW,8.1,-,N/A,,Partly Cloudy,210,2012-10-05 21:55:00
5:55 PM,73.6,61.5,66,29.98,10.0,SSW,5.8,-,N/A,,Mostly Cloudy,200,2012-10-05 22:55:00
6:55 PM,72.3,61.7,69,29.96,10.0,South,4.6,-,N/A,,Mostly Cloudy,190,2012-10-05 23:55:00
7:52 PM,66.2,59.0,78,30.03,10.0,NNW,9.2,19.6,N/A,,Light Drizzle,340,2012-10-06 00:52:00
7:55 PM,64.4,57.4,78,30.02,10.0,North,8.1,19.6,0.00,,Light Drizzle,360,2012-10-06 00:55:00
8:29 PM,55.4,53.6,94,30.06,10.0,Variable,5.8,-,N/A,,Mostly Cloudy,0,2012-10-06 01:29:00
8:30 PM,55.4,53.6,94,30.06,10.0,Variable,6.9,-,N/A,,Mostly Cloudy,0,2012-10-06 01:30:00
8:34 PM,53.6,53.6,100,30.07,10.0,Variable,5.8,-,N/A,,Light Drizzle,0,2012-10-06 01:34:00
8:55 PM,51.6,50.4,95,30.06,10.0,North,6.9,17.3,0.02,Rain,Light Rain,10,2012-10-06 01:55:00
9:19 PM,50.0,50.0,100,30.07,10.0,Variable,4.6,-,N/A,,Light Drizzle,0,2012-10-06 02:19:00
9:37 PM,50.0,50.0,100,30.08,10.0,Variable,5.8,-,N/A,,Overcast,0,2012-10-06 02:37:00
9:49 PM,50.0,48.2,94,30.09,10.0,Variable,6.9,-,N/A,,Overcast,0,2012-10-06 02:49:00
9:55 PM,48.7,48.4,99,30.10,10.0,Variable,4.6,-,0.02,,Overcast,0,2012-10-06 02:55:00
10:11 PM,48.2,48.2,100,30.08,10.0,Variable,4.6,-,N/A,,Overcast,0,2012-10-06 03:11:00
10:25 PM,48.2,48.2,100,30.08,10.0,Variable,5.8,-,N/A,,Overcast,0,2012-10-06 03:25:00
10:49 PM,48.2,46.4,93,30.10,10.0,Variable,5.8,-,N/A,,Overcast,0,2012-10-06 03:49:00
10:55 PM,47.5,47.1,99,30.09,10.0,Variable,6.9,-,N/A,,Overcast,0,2012-10-06 03:55:00
10:59 PM,48.2,46.4,93,30.10,10.0,Variable,3.5,-,N/A,,Overcast,0,2012-10-06 03:59:00
11:11 PM,48.2,46.4,93,30.09,10.0,North,9.2,-,N/A,,Overcast,360,2012-10-06 04:11:00
11:27 PM,48.2,46.4,93,30.09,10.0,Variable,3.5,-,N/A,,Overcast,0,2012-10-06 04:27:00
11:38 PM,46.4,46.4,100,30.12,10.0,Variable,4.6,-,N/A,,Overcast,0,2012-10-06 04:38:00
11:44 PM,46.4,46.4,100,30.11,10.0,Variable,4.6,-,N/A,,Light Drizzle,0,2012-10-06 04:44:00
11:54 PM,46.4,46.4,100,30.10,10.0,Variable,6.9,-,N/A,,Overcast,0,2012-10-06 04:54:00
11:55 PM,46.2,45.9,99,30.10,10.0,North,9.2,-,0.00,,Overcast,360,2012-10-06 04:55:00